Voltar ao catálogo

BREEZE-M DEB

TANK

AtivoHEO
NORAD 38654·DEBRIS·🇷🇺 Russia

Lançado Jul 9, 2012 de Baikonur Cosmodrome

Loading…

Próximas Passagens (próximas 24 horas)

TLE

AtualizadoSource: Space-Track

Época: Sep 14, 2026, 10:27 UTC

1 38654U 12036C   26257.43576496  .00001838  00000-0  42840-3 0  9995
2 38654  49.6574  26.6435 5029787 267.9110  36.3616  5.54741564276723

Acompanhe BREEZE-M DEB em tempo real com AllMySat

Download on the App Store